The Weather Page

Only for information, data not for operational purposes.

ELLX Aeronautical Report by METEOLUX

ELLX Current METAR and TAF

ELLX 140950Z VRB06G16KT CAVOK 26/09 Q1009 NOSIG

TAF ELLX 140500Z 1406/1512 07009KT CAVOK BECMG 1409/1412 14010KT BECMG 1415/1418 23012KT PROB40 TEMPO 1422/1512 20015G25KT 4000 SHRA FEW040CB SCT040TCU PROB40 TEMPO 1501/1508 BKN007

METAR’s and TAF’s

METAR/TAF from US-NOAA-ADDS. Enter one or more ICAO codes separated by spaces:

METAR TAF 

A list of weather stations and their ICAO and IATA codes is found on this page.

Flight Preparation

EUMETSAT Infrared

Eumetsat Infrared

METEOX Radar

METEOX Radar Image


Share this

Comments are closed.